TimeAKDT,TemperatureF,Dew PointF,Humidity,Sea Level PressureIn,VisibilityMPH,Wind Direction,Wind SpeedMPH,Gust SpeedMPH,PrecipitationIn,Events,Conditions,WindDirDegrees,DateUTC
12:16 AM,37.4,33.8,87,29.69,10.0,NNE,3.5,-,N/A,,Clear,20,2013-09-08 08:16:00
12:36 AM,37.4,33.8,87,29.69,10.0,SE,4.6,-,N/A,,Clear,130,2013-09-08 08:36:00
12:56 AM,37.4,33.8,87,29.69,10.0,ESE,4.6,-,N/A,,Clear,120,2013-09-08 08:56:00
1:16 AM,35.6,32.0,87,29.68,10.0,East,3.5,-,N/A,,Clear,90,2013-09-08 09:16:00
1:36 AM,35.6,32.0,87,29.67,10.0,East,5.8,-,N/A,,Clear,100,2013-09-08 09:36:00
1:56 AM,35.6,32.0,87,29.67,10.0,ESE,4.6,-,N/A,,Clear,110,2013-09-08 09:56:00
2:16 AM,35.6,33.8,93,29.67,10.0,ESE,4.6,-,N/A,,Clear,110,2013-09-08 10:16:00
2:36 AM,35.6,32.0,87,29.67,10.0,East,5.8,-,N/A,,Clear,100,2013-09-08 10:36:00
2:56 AM,35.6,30.2,81,29.67,10.0,East,5.8,-,N/A,,Clear,90,2013-09-08 10:56:00
3:16 AM,35.6,33.8,93,29.67,10.0,East,4.6,-,N/A,,Clear,80,2013-09-08 11:16:00
3:36 AM,35.6,30.2,81,29.66,10.0,ENE,3.5,-,N/A,,Clear,70,2013-09-08 11:36:00
3:56 AM,35.6,33.8,93,29.67,10.0,NNE,3.5,-,N/A,,Clear,30,2013-09-08 11:56:00
4:16 AM,35.6,32.0,87,29.66,10.0,Calm,Calm,-,N/A,,Clear,0,2013-09-08 12:16:00
4:36 AM,33.8,30.2,87,29.67,10.0,SE,3.5,-,N/A,,Mostly Cloudy,130,2013-09-08 12:36:00
4:56 AM,33.8,30.2,87,29.66,10.0,SE,3.5,-,N/A,,Mostly Cloudy,140,2013-09-08 12:56:00
5:16 AM,32.0,28.4,87,29.66,10.0,SE,4.6,-,N/A,,Mostly Cloudy,130,2013-09-08 13:16:00
5:36 AM,33.8,30.2,87,29.66,10.0,ESE,5.8,-,N/A,,Scattered Clouds,120,2013-09-08 13:36:00
5:56 AM,33.8,32.0,93,29.66,10.0,ESE,5.8,-,N/A,,Partly Cloudy,120,2013-09-08 13:56:00
6:16 AM,33.8,30.2,87,29.66,10.0,ESE,5.8,-,N/A,,Clear,110,2013-09-08 14:16:00
6:36 AM,33.8,30.2,87,29.66,10.0,ESE,8.1,-,N/A,,Clear,120,2013-09-08 14:36:00
6:56 AM,33.8,30.2,87,29.66,10.0,East,6.9,-,N/A,,Clear,100,2013-09-08 14:56:00
7:16 AM,33.8,30.2,87,29.66,10.0,ESE,6.9,-,N/A,,Clear,110,2013-09-08 15:16:00
7:36 AM,33.8,30.2,87,29.66,10.0,East,4.6,-,N/A,,Scattered Clouds,100,2013-09-08 15:36:00
7:56 AM,35.6,32.0,87,29.67,10.0,East,3.5,-,N/A,,Overcast,90,2013-09-08 15:56:00
8:16 AM,35.6,32.0,87,29.67,10.0,SE,4.6,-,N/A,,Overcast,130,2013-09-08 16:16:00
8:36 AM,33.8,30.2,87,29.67,10.0,SE,5.8,-,N/A,,Overcast,130,2013-09-08 16:36:00
8:56 AM,35.6,32.0,87,29.67,10.0,SE,5.8,-,N/A,,Overcast,140,2013-09-08 16:56:00
9:16 AM,35.6,33.8,93,29.67,10.0,SE,5.8,-,N/A,,Overcast,130,2013-09-08 17:16:00
9:36 AM,37.4,33.8,87,29.67,10.0,ESE,4.6,-,N/A,,Overcast,120,2013-09-08 17:36:00
9:56 AM,37.4,35.6,93,29.67,10.0,East,4.6,-,N/A,,Overcast,100,2013-09-08 17:56:00
10:16 AM,39.2,35.6,87,29.68,10.0,ESE,4.6,-,N/A,,Overcast,110,2013-09-08 18:16:00
10:36 AM,39.2,35.6,87,29.68,10.0,East,4.6,-,N/A,,Overcast,100,2013-09-08 18:36:00
10:56 AM,39.2,35.6,87,29.69,10.0,ESE,4.6,-,N/A,,Overcast,110,2013-09-08 18:56:00
11:16 AM,41.0,37.4,87,29.69,10.0,ESE,5.8,-,N/A,,Overcast,110,2013-09-08 19:16:00
11:36 AM,41.0,37.4,87,29.69,10.0,SE,3.5,-,N/A,,Overcast,130,2013-09-08 19:36:00
11:56 AM,41.0,37.4,87,29.69,10.0,Calm,Calm,-,N/A,,Overcast,0,2013-09-08 19:56:00
12:16 PM,42.8,37.4,81,29.69,10.0,SSE,3.5,-,N/A,,Overcast,150,2013-09-08 20:16:00
12:36 PM,42.8,37.4,81,29.69,10.0,SW,5.8,-,N/A,,Overcast,220,2013-09-08 20:36:00
12:56 PM,42.8,37.4,81,29.69,10.0,SSW,4.6,-,N/A,,Overcast,210,2013-09-08 20:56:00
1:16 PM,42.8,37.4,81,29.69,10.0,SW,3.5,-,N/A,,Overcast,220,2013-09-08 21:16:00
1:36 PM,42.8,39.2,87,29.69,10.0,South,4.6,-,N/A,,Overcast,170,2013-09-08 21:36:00
1:56 PM,42.8,39.2,87,29.69,10.0,SSW,6.9,-,N/A,,Overcast,210,2013-09-08 21:56:00
2:16 PM,42.8,39.2,87,29.69,10.0,SSW,5.8,-,N/A,,Overcast,210,2013-09-08 22:16:00
2:36 PM,44.6,39.2,81,29.69,10.0,SSW,5.8,-,N/A,,Overcast,210,2013-09-08 22:36:00
2:56 PM,44.6,37.4,76,29.69,10.0,SW,5.8,-,N/A,,Overcast,230,2013-09-08 22:56:00
3:16 PM,44.6,39.2,81,29.70,10.0,SSW,5.8,-,N/A,,Overcast,210,2013-09-08 23:16:00
3:36 PM,44.6,39.2,81,29.69,10.0,SW,5.8,-,N/A,,Overcast,220,2013-09-08 23:36:00
3:56 PM,44.6,39.2,81,29.70,10.0,SW,6.9,-,N/A,,Mostly Cloudy,230,2013-09-08 23:56:00
4:16 PM,42.8,39.2,87,29.69,10.0,Calm,Calm,-,N/A,,Mostly Cloudy,0,2013-09-09 00:16:00
4:36 PM,42.8,39.2,87,29.69,10.0,West,4.6,-,N/A,,Overcast,260,2013-09-09 00:36:00
4:56 PM,42.8,39.2,87,29.69,10.0,West,4.6,-,N/A,,Mostly Cloudy,280,2013-09-09 00:56:00
5:16 PM,42.8,39.2,87,29.69,10.0,WNW,5.8,-,N/A,,Partly Cloudy,300,2013-09-09 01:16:00
5:36 PM,42.8,39.2,87,29.69,10.0,WNW,3.5,-,N/A,,Partly Cloudy,300,2013-09-09 01:36:00
5:56 PM,42.8,39.2,87,29.69,10.0,WNW,4.6,-,N/A,,Clear,300,2013-09-09 01:56:00
6:16 PM,42.8,39.2,87,29.69,10.0,WNW,4.6,-,N/A,,Clear,290,2013-09-09 02:16:00
6:36 PM,44.6,39.2,81,29.68,10.0,West,4.6,-,N/A,,Clear,260,2013-09-09 02:36:00
6:56 PM,44.6,39.2,81,29.68,10.0,WSW,3.5,-,N/A,,Clear,250,2013-09-09 02:56:00
7:16 PM,44.6,39.2,81,29.69,10.0,SW,4.6,-,N/A,,Clear,230,2013-09-09 03:16:00
7:36 PM,44.6,39.2,81,29.69,10.0,WSW,4.6,-,N/A,,Partly Cloudy,250,2013-09-09 03:36:00
7:56 PM,44.6,39.2,81,29.69,10.0,Calm,Calm,-,N/A,,Clear,0,2013-09-09 03:56:00
8:16 PM,44.6,39.2,81,29.69,10.0,Calm,Calm,-,N/A,,Partly Cloudy,0,2013-09-09 04:16:00
8:36 PM,44.6,39.2,81,29.68,10.0,Calm,Calm,-,N/A,,Mostly Cloudy,0,2013-09-09 04:36:00
8:56 PM,44.6,39.2,81,29.69,10.0,Calm,Calm,-,N/A,,Mostly Cloudy,0,2013-09-09 04:56:00
9:16 PM,44.6,39.2,81,29.69,10.0,Calm,Calm,-,N/A,,Overcast,0,2013-09-09 05:16:00
9:36 PM,44.6,39.2,81,29.69,10.0,Calm,Calm,-,N/A,,Overcast,0,2013-09-09 05:36:00
9:56 PM,44.6,39.2,81,29.69,10.0,Calm,Calm,-,N/A,,Overcast,0,2013-09-09 05:56:00
10:16 PM,42.8,39.2,87,29.69,10.0,ENE,3.5,-,N/A,,Overcast,60,2013-09-09 06:16:00
10:36 PM,42.8,39.2,87,29.69,10.0,East,4.6,-,N/A,,Mostly Cloudy,90,2013-09-09 06:36:00
10:56 PM,41.0,37.4,87,29.69,10.0,ENE,3.5,-,N/A,,Mostly Cloudy,70,2013-09-09 06:56:00
11:16 PM,39.2,37.4,93,29.69,10.0,Calm,Calm,-,N/A,,Partly Cloudy,0,2013-09-09 07:16:00
11:36 PM,39.2,37.4,93,29.70,10.0,East,3.5,-,N/A,,Clear,100,2013-09-09 07:36:00
11:56 PM,39.2,37.4,93,29.70,10.0,ENE,3.5,-,N/A,,Clear,70,2013-09-09 07:56:00